Location: *
(49.8044°N, 4.0558°E)
Time: 03:26:15
(UTC+00:00)

NOSS 3-4 (A) - Pass Details

Date: 09 April 2020
Orbit: 892 x 1320 km, 63.4° (Epoch: 01 June)

Event Time Altitude Azimuth Distance (km) Brightness Sun altitude
Rises 19:24:21 0° 316° (NW) 3,815 8.1 -9.3°
Reaches altitude 10° 19:26:54 10° 313° (NW) 2,916 7.3 -9.7°
Maximum altitude 19:33:44 60° 235° (SW) 1,307 4.3 -10.7°
Drops below altitude 10° 19:41:16 10° 158° (SSE) 3,202 5.7 -11.8°
Enters shadow 19:42:34 - 157° (SSE) 3,654 6.0 -12.0°
